Location: Buchdorf
(48.7842°N, 10.8275°E)
Time: 23:07:09
(UTC+00:00)

SPOT 5 - Pass Details

Date: 09 April 2020
Orbit: 624 x 814 km, 98.3° (Epoch: 29 May)

Event Time Altitude Azimuth Distance (km) Brightness Sun altitude
Exits shadow 20:31:41 53° 71° (ENE) 768 2.8 -22.5°
Maximum altitude 20:31:41 53° 71° (ENE) 768 2.8 -22.5°
Drops below altitude 10° 20:35:55 10° 354° (N) 2,011 5.8 -23.0°
Sets 20:38:09 0° 350° (N) 2,931 6.9 -23.3°
